| time (UTC) | temp F | wind direction | speed MPH | gust MPH | rain 1hr in | rain 24hr in | rain mn in | humidity % | barometer mb |
| 20260508064541 | 58 | 281 | 10.0 | 25.0 | 0.08 | 0.19 | 0.15 | 94 | 1004.2 |
| 20260508064027 | 58 | 264 | 10.0 | 25.0 | 0.08 | 0.19 | 0.15 | 94 | 1003.8 |
| 20260508063525 | 59 | 253 | 14.0 | 26.0 | 0.10 | 0.19 | 0.15 | 94 | 1004.8 |
| 20260508063057 | 59 | 244 | 15.0 | 26.0 | 0.09 | 0.18 | 0.14 | 94 | 1004.6 |
| 20260508062530 | 59 | 260 | 15.0 | 24.0 | 0.10 | 0.18 | 0.14 | 94 | 1004.6 |
| 20260508062026 | 59 | 234 | 14.0 | 24.0 | 0.10 | 0.18 | 0.14 | 94 | 1005.1 |
| 20260508061541 | 60 | 227 | 9.0 | 21.0 | 0.10 | 0.17 | 0.13 | 95 | 1004.6 |
| 20260508061026 | 61 | 264 | 9.0 | 21.0 | 0.10 | 0.17 | 0.13 | 95 | 1004.5 |
| 20260508060524 | 61 | 256 | 9.0 | 23.0 | 0.09 | 0.16 | 0.12 | 95 | 1004.4 |
| 20260508060042 | 61 | 256 | 11.0 | 24.0 | 0.10 | 0.16 | 0.12 | 94 | 1003.9 |
| 20260508055524 | 62 | 261 | 12.0 | 28.0 | 0.10 | 0.15 | 0.11 | 93 | 1003.9 |
| 20260508055026 | 63 | 272 | 13.0 | 28.0 | 0.09 | 0.13 | 0.09 | 91 | 1003.9 |
| 20260508054537 | 66 | 228 | 7.0 | 13.0 | 0.07 | 0.11 | 0.07 | 92 | 1004.3 |
| 20260508054023 | 66 | 258 | 6.0 | 11.0 | 0.07 | 0.11 | 0.07 | 91 | 1004.1 |
| 20260508053523 | 66 | 286 | 5.0 | 14.0 | 0.05 | 0.09 | 0.05 | 90 | 1003.8 |
| 20260508053036 | 67 | 297 | 7.0 | 14.0 | 0.05 | 0.09 | 0.05 | 90 | 1003.8 |
| 20260508052527 | 67 | 278 | 5.0 | 15.0 | 0.04 | 0.08 | 0.04 | 89 | 1003.6 |
| 20260508052025 | 67 | 304 | 7.0 | 15.0 | 0.04 | 0.08 | 0.04 | 88 | 1003.6 |
| 20260508051540 | 67 | 275 | 7.0 | 14.0 | 0.03 | 0.07 | 0.03 | 88 | 1003.5 |
| 20260508051024 | 67 | 322 | 6.0 | 12.0 | 0.03 | 0.07 | 0.03 | 87 | 1003.0 |
| 20260508050525 | 67 | 294 | 5.0 | 12.0 | 0.03 | 0.07 | 0.03 | 86 | 1002.7 |
| 20260508050039 | 68 | 279 | 5.0 | 12.0 | 0.01 | 0.05 | 0.01 | 85 | 1002.5 |
| 20260508045526 | 68 | 283 | 5.0 | 12.0 | 0.01 | 0.05 | 0.01 | 84 | 1002.3 |
| 20260508045027 | 68 | 296 | 3.0 | 10.0 | 0.00 | 0.04 | 0.00 | 83 | 1002.4 |
| 20260508044535 | 68 | 302 | 3.0 | 10.0 | 0.00 | 0.04 | 0.00 | 84 | 1002.5 |
| 20260508044027 | 68 | 276 | 1.0 | 10.0 | 0.00 | 0.04 | 0.00 | 84 | 1002.6 |
| 20260508043523 | 68 | 322 | 2.0 | 10.0 | 0.00 | 0.04 | 0.00 | 84 | 1002.5 |
| 20260508043053 | 68 | 320 | 3.0 | 9.0 | 0.00 | 0.04 | 0.00 | 84 | 1002.4 |
| 20260508042525 | 68 | 356 | 3.0 | 11.0 | 0.00 | 0.04 | 0.00 | 84 | 1002.2 |
| 20260508042026 | 68 | 3 | 3.0 | 12.0 | 0.00 | 0.04 | 0.00 | 84 | 1002.1 |
| 20260508041545 | 68 | 319 | 3.0 | 12.0 | 0.00 | 0.04 | 0.00 | 83 | 1002.2 |
| 20260508041027 | 68 | 348 | 3.0 | 12.0 | 0.00 | 0.04 | 0.00 | 83 | 1002.1 |
| 20260508040609 | 68 | 307 | 3.0 | 10.0 | 0.00 | 0.04 | 0.00 | 82 | 1002.1 |
| 20260508040038 | 68 | 316 | 2.0 | 13.0 | 0.00 | 0.04 | 0.00 | 82 | 1002.3 |
| 20260508035524 | 68 | 322 | 4.0 | 16.0 | 0.00 | 0.04 | 0.00 | 82 | 1002.4 |
| 20260508035023 | 68 | 317 | 5.0 | 16.0 | 0.02 | 0.04 | 0.00 | 84 | 1002.6 |
| 20260508034536 | 67 | 320 | 6.0 | 14.0 | 0.04 | 0.04 | 0.00 | 85 | 1002.4 |
| 20260508034027 | 67 | 303 | 6.0 | 17.0 | 0.04 | 0.04 | 0.00 | 87 | 1002.8 |
| 20260508033523 | 67 | 316 | 7.0 | 17.0 | 0.04 | 0.04 | 0.00 | 87 | 1003.1 |
| 20260508033036 | 67 | 300 | 6.0 | 16.0 | 0.04 | 0.04 | 0.00 | 87 | 1003.1 |
| 20260508032528 | 67 | 308 | 5.0 | 13.0 | 0.04 | 0.04 | 0.00 | 87 | 1002.9 |
| 20260508032023 | 67 | 285 | 5.0 | 13.0 | 0.04 | 0.04 | 0.00 | 87 | 1003.0 |
| 20260508031536 | 67 | 291 | 6.0 | 13.0 | 0.04 | 0.04 | 0.00 | 86 | 1003.0 |
| 20260508031024 | 67 | 291 | 6.0 | 16.0 | 0.04 | 0.04 | 0.00 | 85 | 1003.2 |
| 20260508030528 | 67 | 278 | 7.0 | 26.0 | 0.04 | 0.04 | 0.00 | 85 | 1003.2 |
| 20260508030042 | 67 | 312 | 8.0 | 27.0 | 0.04 | 0.04 | 0.00 | 85 | 1003.3 |
| 20260508025526 | 68 | 281 | 13.0 | 27.0 | 0.04 | 0.04 | 0.04 | 82 | 1003.4 |
| 20260508025029 | 70 | 272 | 12.0 | 24.0 | 0.02 | 0.02 | 0.02 | 76 | 1003.5 |
| 20260508024536 | 72 | 274 | 14.0 | 24.0 | 0.00 | 0.00 | 0.00 | 70 | 1003.7 |
| 20260508024027 | 72 | 279 | 11.0 | 29.0 | 0.00 | 0.00 | 0.00 | 69 | 1003.3 |
| 20260508023525 | 74 | 239 | 17.0 | 29.0 | 0.00 | 0.00 | 0.00 | 66 | 1003.4 |
| 20260508023043 | 76 | 259 | 13.0 | 41.0 | 0.00 | 0.00 | 0.00 | 63 | 1003.4 |
| 20260508022524 | 79 | 302 | 21.0 | 41.0 | 0.00 | 0.00 | 0.00 | 57 | 1003.6 |
| 20260508022023 | 81 | 272 | 8.0 | 20.0 | 0.00 | 0.00 | 0.00 | 59 | 1002.5 |
| 20260508021546 | 81 | 313 | 8.0 | 20.0 | 0.00 | 0.00 | 0.00 | 59 | 1001.3 |
| 20260508021024 | 81 | 353 | 10.0 | 19.0 | 0.00 | 0.00 | 0.00 | 58 | 1001.2 |
| 20260508020526 | 81 | 328 | 8.0 | 18.0 | 0.00 | 0.00 | 0.00 | 58 | 1001.3 |
| 20260508020045 | 81 | 316 | 9.0 | 21.0 | 0.00 | 0.00 | 0.00 | 58 | 1001.3 |
| 20260508015525 | 81 | 1 | 9.0 | 21.0 | 0.00 | 0.00 | 0.00 | 58 | 1000.9 |
| 20260508015024 | 81 | 353 | 8.0 | 17.0 | 0.00 | 0.00 | 0.00 | 58 | 1000.9 |
| 20260508014544 | 80 | 349 | 9.0 | 19.0 | 0.00 | 0.00 | 0.00 | 59 | 1001.1 |
| 20260508014210 | 81 | 18 | 8.0 | 19.0 | 0.00 | 0.00 | 0.00 | 58 | 1001.0 |
| 20260508013524 | 80 | 348 | 7.0 | 15.0 | 0.00 | 0.00 | 0.00 | 59 | 1001.3 |
| 20260508013046 | 80 | 345 | 5.0 | 13.0 | 0.00 | 0.00 | 0.00 | 59 | 1001.3 |
| 20260508012529 | 80 | 1 | 7.0 | 14.0 | 0.00 | 0.00 | 0.00 | 59 | 1001.2 |
| 20260508012026 | 80 | 16 | 4.0 | 16.0 | 0.00 | 0.00 | 0.00 | 59 | 1001.3 |
| 20260508011541 | 80 | 352 | 8.0 | 16.0 | 0.00 | 0.00 | 0.00 | 59 | 1001.3 |
| 20260508011026 | 80 | 347 | 4.0 | 11.0 | 0.00 | 0.00 | 0.00 | 60 | 1001.5 |
| 20260508010526 | 80 | 356 | 5.0 | 11.0 | 0.00 | 0.00 | 0.00 | 60 | 1001.4 |
| 20260508010040 | 80 | 296 | 4.0 | 12.0 | 0.00 | 0.00 | 0.00 | 60 | 1001.3 |
| 20260508005524 | 80 | 4 | 6.0 | 12.0 | 0.00 | 0.00 | 0.00 | 59 | 1001.3 |
| 20260508005027 | 80 | 25 | 7.0 | 12.0 | 0.00 | 0.00 | 0.00 | 59 | 1001.2 |
| 20260508004536 | 80 | 359 | 6.0 | 11.0 | 0.00 | 0.00 | 0.00 | 60 | 1001.3 |
| 20260508004027 | 80 | 34 | 5.0 | 11.0 | 0.00 | 0.00 | 0.00 | 60 | 1001.3 |
| 20260508003530 | 80 | 324 | 5.0 | 12.0 | 0.00 | 0.00 | 0.00 | 60 | 1001.4 |
| 20260508003042 | 80 | 358 | 5.0 | 12.0 | 0.00 | 0.00 | 0.00 | 60 | 1001.4 |
| 20260508002523 | 80 | 12 | 4.0 | 11.0 | 0.00 | 0.00 | 0.00 | 60 | 1001.3 |
| 20260508002026 | 80 | 6 | 6.0 | 11.0 | 0.00 | 0.00 | 0.00 | 59 | 1001.5 |
| 20260508001558 | 80 | 14 | 6.0 | 11.0 | 0.00 | 0.00 | 0.00 | 60 | 1001.3 |
| 20260508001023 | 80 | 18 | 5.0 | 11.0 | 0.00 | 0.00 | 0.00 | 60 | 1001.4 |
| 20260508000524 | 80 | 29 | 5.0 | 14.0 | 0.00 | 0.00 | 0.00 | 60 | 1001.4 |
| 20260508000043 | 80 | 2 | 6.0 | 14.0 | 0.00 | 0.00 | 0.00 | 60 | 1001.3 |
| 20260507235523 | 80 | 33 | 7.0 | 13.0 | 0.00 | 0.00 | 0.00 | 60 | 1001.3 |
| 20260507235024 | 80 | 8 | 6.0 | 13.0 | 0.00 | 0.00 | 0.00 | 60 | 1001.3 |
| 20260507234537 | 80 | 23 | 7.0 | 13.0 | 0.00 | 0.00 | 0.00 | 60 | 1001.2 |
| 20260507234053 | 80 | 25 | 7.0 | 13.0 | 0.00 | 0.00 | 0.00 | 61 | 1001.3 |
| 20260507233526 | 80 | 29 | 7.0 | 13.0 | 0.00 | 0.00 | 0.00 | 61 | 1001.3 |
| 20260507233036 | 80 | 25 | 7.0 | 11.0 | 0.00 | 0.00 | 0.00 | 61 | 1001.5 |
| 20260507232526 | 80 | 17 | 6.0 | 11.0 | 0.00 | 0.00 | 0.00 | 61 | 1001.6 |
| 20260507232026 | 80 | 28 | 6.0 | 11.0 | 0.00 | 0.00 | 0.00 | 61 | 1001.6 |
| 20260507231537 | 80 | 29 | 5.0 | 11.0 | 0.00 | 0.00 | 0.00 | 60 | 1001.8 |
| 20260507231027 | 80 | 18 | 4.0 | 10.0 | 0.00 | 0.00 | 0.00 | 60 | 1001.7 |
| 20260507230529 | 80 | 16 | 4.0 | 10.0 | 0.00 | 0.00 | 0.00 | 60 | 1001.7 |
| 20260507230042 | 80 | 20 | 3.0 | 9.0 | 0.00 | 0.00 | 0.00 | 60 | 1001.9 |
| 20260507225527 | 81 | 358 | 4.0 | 9.0 | 0.00 | 0.00 | 0.00 | 60 | 1001.8 |
| 20260507225028 | 81 | 356 | 5.0 | 11.0 | 0.00 | 0.00 | 0.00 | 59 | 1001.9 |
| 20260507224551 | 81 | 34 | 5.0 | 11.0 | 0.00 | 0.00 | 0.00 | 59 | 1001.9 |
| 20260507224028 | 81 | 360 | 5.0 | 11.0 | 0.00 | 0.00 | 0.00 | 59 | 1002.1 |
| 20260507223528 | 81 | 37 | 3.0 | 8.0 | 0.00 | 0.00 | 0.00 | 60 | 1002.1 |
| 20260507223041 | 81 | 15 | 3.0 | 7.0 | 0.00 | 0.00 | 0.00 | 60 | 1001.9 |
| 20260507222528 | 81 | 25 | 4.0 | 10.0 | 0.00 | 0.00 | 0.00 | 60 | 1001.9 |
| 20260507222028 | 81 | 5 | 4.0 | 10.0 | 0.00 | 0.00 | 0.00 | 60 | 1002.1 |
| 20260507221535 | 81 | 16 | 4.0 | 9.0 | 0.00 | 0.00 | 0.00 | 60 | 1002.1 |
| 20260507221027 | 81 | 357 | 3.0 | 10.0 | 0.00 | 0.00 | 0.00 | 60 | 1002.2 |
| 20260507220609 | 81 | 2 | 5.0 | 11.0 | 0.00 | 0.00 | 0.00 | 60 | 1002.3 |
| 20260507220042 | 81 | 357 | 4.0 | 11.0 | 0.00 | 0.00 | 0.00 | 60 | 1002.3 |
| 20260507215530 | 81 | 8 | 5.0 | 11.0 | 0.00 | 0.00 | 0.00 | 60 | 1002.1 |
| 20260507215024 | 81 | 351 | 5.0 | 11.0 | 0.00 | 0.00 | 0.00 | 60 | 1002.1 |
| 20260507214538 | 81 | 338 | 5.0 | 11.0 | 0.00 | 0.00 | 0.00 | 60 | 1002.1 |
| 20260507214026 | 81 | 353 | 4.0 | 12.0 | 0.00 | 0.00 | 0.00 | 60 | 1002.3 |
| 20260507213526 | 81 | 2 | 6.0 | 12.0 | 0.00 | 0.00 | 0.00 | 60 | 1002.1 |
| 20260507213036 | 81 | 353 | 5.0 | 11.0 | 0.00 | 0.00 | 0.00 | 60 | 1002.1 |
| 20260507212526 | 81 | 351 | 5.0 | 10.0 | 0.00 | 0.00 | 0.00 | 60 | 1002.3 |
| 20260507212026 | 81 | 333 | 4.0 | 9.0 | 0.00 | 0.00 | 0.00 | 60 | 1002.3 |
| 20260507211540 | 81 | 343 | 4.0 | 8.0 | 0.00 | 0.00 | 0.00 | 61 | 1002.3 |
| 20260507211024 | 81 | 356 | 4.0 | 8.0 | 0.00 | 0.00 | 0.00 | 61 | 1002.2 |
| 20260507210524 | 81 | 347 | 3.0 | 8.0 | 0.00 | 0.00 | 0.00 | 60 | 1002.3 |
| 20260507210036 | 81 | 356 | 3.0 | 8.0 | 0.00 | 0.00 | 0.00 | 60 | 1002.3 |
| 20260507205526 | 81 | 358 | 3.0 | 9.0 | 0.00 | 0.00 | 0.00 | 60 | 1002.3 |
| 20260507205030 | 82 | 358 | 3.0 | 11.0 | 0.00 | 0.00 | 0.00 | 59 | 1002.3 |
| 20260507204548 | 82 | 326 | 5.0 | 11.0 | 0.00 | 0.00 | 0.00 | 59 | 1002.3 |
| 20260507204031 | 82 | 335 | 3.0 | 11.0 | 0.00 | 0.00 | 0.00 | 60 | 1002.3 |
| 20260507203528 | 82 | 358 | 3.0 | 11.0 | 0.00 | 0.00 | 0.00 | 60 | 1002.2 |
| 20260507203042 | 82 | 347 | 5.0 | 12.0 | 0.00 | 0.00 | 0.00 | 59 | 1002.2 |
| 20260507202528 | 82 | 348 | 5.0 | 12.0 | 0.00 | 0.00 | 0.00 | 59 | 1002.3 |
| 20260507202028 | 82 | 2 | 4.0 | 11.0 | 0.00 | 0.00 | 0.00 | 59 | 1002.2 |
| 20260507201551 | 83 | 4 | 6.0 | 11.0 | 0.00 | 0.00 | 0.00 | 59 | 1002.1 |
| 20260507201028 | 83 | 357 | 6.0 | 11.0 | 0.00 | 0.00 | 0.00 | 59 | 1002.2 |
| 20260507200531 | 83 | 9 | 4.0 | 12.0 | 0.00 | 0.00 | 0.00 | 58 | 1002.2 |
| 20260507200048 | 83 | 346 | 3.0 | 12.0 | 0.00 | 0.00 | 0.00 | 59 | 1002.3 |
| 20260507195528 | 83 | 354 | 3.0 | 9.0 | 0.00 | 0.00 | 0.00 | 58 | 1002.3 |
| 20260507195028 | 83 | 355 | 3.0 | 10.0 | 0.00 | 0.00 | 0.00 | 59 | 1002.2 |
| 20260507194536 | 83 | 357 | 4.0 | 10.0 | 0.00 | 0.00 | 0.00 | 58 | 1002.3 |
| 20260507194211 | 84 | 345 | 3.0 | 10.0 | 0.00 | 0.00 | 0.00 | 58 | 1002.4 |
| 20260507193527 | 84 | 343 | 3.0 | 10.0 | 0.00 | 0.00 | 0.00 | 57 | 1002.5 |
| 20260507193036 | 84 | 337 | 4.0 | 10.0 | 0.00 | 0.00 | 0.00 | 56 | 1002.5 |
| 20260507192527 | 84 | 349 | 4.0 | 14.0 | 0.00 | 0.00 | 0.00 | 57 | 1002.7 |
| 20260507192028 | 84 | 330 | 4.0 | 14.0 | 0.00 | 0.00 | 0.00 | 56 | 1002.6 |
| 20260507191535 | 84 | 334 | 5.0 | 12.0 | 0.00 | 0.00 | 0.00 | 54 | 1002.6 |
| 20260507191028 | 84 | 343 | 6.0 | 12.0 | 0.00 | 0.00 | 0.00 | 54 | 1002.5 |
| 20260507190528 | 84 | 305 | 6.0 | 14.0 | 0.00 | 0.00 | 0.00 | 54 | 1002.4 |
| 20260507190043 | 85 | 333 | 5.0 | 14.0 | 0.00 | 0.00 | 0.00 | 54 | 1002.3 |
| 20260507185528 | 85 | 311 | 5.0 | 16.0 | 0.00 | 0.00 | 0.00 | 53 | 1002.2 |
| 20260507185031 | 85 | 321 | 7.0 | 16.0 | 0.00 | 0.00 | 0.00 | 52 | 1002.2 |
| 20260507184541 | 85 | 265 | 5.0 | 18.0 | 0.00 | 0.00 | 0.00 | 51 | 1002.2 |
| 20260507184027 | 85 | 343 | 7.0 | 18.0 | 0.00 | 0.00 | 0.00 | 52 | 1002.2 |
| 20260507183527 | 85 | 334 | 8.0 | 18.0 | 0.00 | 0.00 | 0.00 | 51 | 1002.3 |
| 20260507183039 | 85 | 295 | 9.0 | 18.0 | 0.00 | 0.00 | 0.00 | 50 | 1002.3 |
| 20260507182528 | 85 | 326 | 9.0 | 18.0 | 0.00 | 0.00 | 0.00 | 50 | 1002.3 |
| 20260507182028 | 85 | 307 | 8.0 | 18.0 | 0.00 | 0.00 | 0.00 | 51 | 1002.2 |
| 20260507181543 | 85 | 305 | 6.0 | 18.0 | 0.00 | 0.00 | 0.00 | 50 | 1002.3 |
| 20260507181031 | 85 | 285 | 7.0 | 15.0 | 0.00 | 0.00 | 0.00 | 51 | 1002.1 |
| 20260507180529 | 85 | 279 | 7.0 | 15.0 | 0.00 | 0.00 | 0.00 | 52 | 1002.1 |
| 20260507180044 | 85 | 303 | 6.0 | 18.0 | 0.00 | 0.00 | 0.00 | 52 | 1002.2 |
| 20260507175527 | 86 | 295 | 7.0 | 20.0 | 0.00 | 0.00 | 0.00 | 51 | 1002.2 |
| 20260507175030 | 86 | 290 | 8.0 | 20.0 | 0.00 | 0.00 | 0.00 | 51 | 1002.1 |
| 20260507174547 | 86 | 304 | 10.0 | 24.0 | 0.00 | 0.00 | 0.00 | 49 | 1002.2 |
| 20260507174028 | 86 | 340 | 13.0 | 24.0 | 0.00 | 0.00 | 0.00 | 49 | 1002.1 |
| 20260507173532 | 86 | 336 | 13.0 | 22.0 | 0.00 | 0.00 | 0.00 | 48 | 1002.2 |
| 20260507173043 | 86 | 304 | 9.0 | 20.0 | 0.00 | 0.00 | 0.00 | 52 | 1002.2 |
| 20260507172527 | 86 | 265 | 8.0 | 19.0 | 0.00 | 0.00 | 0.00 | 51 | 1002.4 |
| 20260507172027 | 86 | 323 | 6.0 | 15.0 | 0.00 | 0.00 | 0.00 | 52 | 1002.4 |
| 20260507171538 | 86 | 326 | 7.0 | 16.0 | 0.00 | 0.00 | 0.00 | 53 | 1002.5 |
| 20260507171028 | 86 | 321 | 8.0 | 16.0 | 0.00 | 0.00 | 0.00 | 52 | 1002.5 |
| 20260507170528 | 86 | 342 | 8.0 | 18.0 | 0.00 | 0.00 | 0.00 | 52 | 1002.4 |
| 20260507170043 | 86 | 300 | 8.0 | 18.0 | 0.00 | 0.00 | 0.00 | 53 | 1002.4 |
| 20260507165530 | 86 | 296 | 9.0 | 18.0 | 0.00 | 0.00 | 0.00 | 51 | 1002.4 |
| 20260507165029 | 86 | 345 | 8.0 | 17.0 | 0.00 | 0.00 | 0.00 | 54 | 1002.5 |
| 20260507164536 | 86 | 328 | 6.0 | 20.0 | 0.00 | 0.00 | 0.00 | 55 | 1002.5 |
| 20260507164028 | 86 | 308 | 9.0 | 20.0 | 0.00 | 0.00 | 0.00 | 56 | 1002.6 |
| 20260507163529 | 86 | 339 | 7.0 | 20.0 | 0.00 | 0.00 | 0.00 | 56 | 1002.8 |
| 20260507163034 | 86 | 326 | 8.0 | 17.0 | 0.00 | 0.00 | 0.00 | 57 | 1003.0 |
| 20260507162528 | 85 | 327 | 6.0 | 17.0 | 0.00 | 0.00 | 0.00 | 57 | 1003.0 |
| 20260507162028 | 85 | 330 | 8.0 | 18.0 | 0.00 | 0.00 | 0.00 | 57 | 1003.2 |
| 20260507161545 | 85 | 335 | 9.0 | 23.0 | 0.00 | 0.00 | 0.00 | 57 | 1003.2 |
| 20260507161030 | 85 | 325 | 8.0 | 24.0 | 0.00 | 0.00 | 0.00 | 56 | 1003.4 |
| 20260507160611 | 86 | 352 | 12.0 | 24.0 | 0.00 | 0.00 | 0.00 | 54 | 1003.4 |
| 20260507160036 | 87 | 328 | 11.0 | 22.0 | 0.00 | 0.00 | 0.00 | 53 | 1003.2 |
| 20260507155530 | 87 | 18 | 6.0 | 21.0 | 0.00 | 0.00 | 0.00 | 57 | 1003.8 |
| 20260507155028 | 86 | 312 | 10.0 | 23.0 | 0.00 | 0.00 | 0.00 | 55 | 1003.8 |
| 20260507154535 | 86 | 309 | 13.0 | 23.0 | 0.00 | 0.00 | 0.00 | 55 | 1003.6 |
| 20260507154027 | 85 | 317 | 8.0 | 24.0 | 0.00 | 0.00 | 0.00 | 58 | 1003.8 |
| 20260507153527 | 84 | 296 | 9.0 | 24.0 | 0.00 | 0.00 | 0.00 | 58 | 1003.9 |
| 20260507153043 | 85 | 6 | 11.0 | 22.0 | 0.00 | 0.00 | 0.00 | 58 | 1004.0 |
| 20260507152527 | 84 | 337 | 9.0 | 22.0 | 0.00 | 0.00 | 0.00 | 60 | 1004.2 |
| 20260507152027 | 84 | 300 | 7.0 | 18.0 | 0.00 | 0.00 | 0.00 | 62 | 1004.3 |
| 20260507151543 | 82 | 336 | 10.0 | 20.0 | 0.00 | 0.00 | 0.00 | 62 | 1004.2 |
| 20260507151027 | 83 | 324 | 9.0 | 21.0 | 0.00 | 0.00 | 0.00 | 61 | 1004.7 |
| 20260507150527 | 83 | 346 | 8.0 | 21.0 | 0.00 | 0.00 | 0.00 | 61 | 1004.9 |
| 20260507150041 | 83 | 4 | 9.0 | 21.0 | 0.00 | 0.00 | 0.00 | 61 | 1004.7 |
| 20260507145528 | 84 | 298 | 8.0 | 20.0 | 0.00 | 0.00 | 0.00 | 63 | 1005.0 |
| 20260507145028 | 84 | 318 | 11.0 | 23.0 | 0.00 | 0.00 | 0.00 | 62 | 1005.0 |
| 20260507144539 | 84 | 336 | 10.0 | 23.0 | 0.00 | 0.00 | 0.00 | 62 | 1005.1 |
| 20260507144028 | 84 | 358 | 12.0 | 23.0 | 0.00 | 0.00 | 0.00 | 62 | 1005.2 |
| 20260507143530 | 83 | 12 | 12.0 | 23.0 | 0.00 | 0.00 | 0.00 | 62 | 1005.1 |
| 20260507143045 | 83 | 324 | 10.0 | 25.0 | 0.00 | 0.00 | 0.00 | 61 | 1005.4 |
| 20260507142527 | 83 | 331 | 12.0 | 26.0 | 0.00 | 0.00 | 0.00 | 62 | 1005.5 |
| 20260507142027 | 83 | 355 | 12.0 | 26.0 | 0.00 | 0.00 | 0.00 | 63 | 1005.5 |
| 20260507141541 | 83 | 356 | 13.0 | 23.0 | 0.00 | 0.00 | 0.00 | 62 | 1005.8 |
| 20260507141027 | 83 | 346 | 13.0 | 23.0 | 0.00 | 0.00 | 0.00 | 63 | 1005.9 |
| 20260507140528 | 83 | 324 | 13.0 | 24.0 | 0.00 | 0.00 | 0.00 | 62 | 1006.2 |
| 20260507140045 | 83 | 328 | 12.0 | 24.0 | 0.00 | 0.00 | 0.00 | 63 | 1006.2 |
| 20260507135531 | 82 | 355 | 10.0 | 21.0 | 0.00 | 0.00 | 0.00 | 65 | 1006.4 |
| 20260507135028 | 82 | 347 | 9.0 | 23.0 | 0.00 | 0.00 | 0.00 | 65 | 1006.5 |
| 20260507134542 | 82 | 10 | 11.0 | 23.0 | 0.00 | 0.00 | 0.00 | 63 | 1006.8 |
| 20260507134211 | 82 | 335 | 10.0 | 22.0 | 0.00 | 0.00 | 0.00 | 64 | 1006.7 |
| 20260507133528 | 82 | 3 | 10.0 | 22.0 | 0.00 | 0.00 | 0.00 | 65 | 1007.2 |
| 20260507133045 | 82 | 349 | 11.0 | 23.0 | 0.00 | 0.00 | 0.00 | 65 | 1007.3 |
| 20260507132527 | 82 | 311 | 11.0 | 23.0 | 0.00 | 0.00 | 0.00 | 65 | 1007.5 |
| 20260507132027 | 81 | 345 | 9.0 | 24.0 | 0.00 | 0.00 | 0.00 | 67 | 1007.6 |
| 20260507131555 | 81 | 357 | 10.0 | 24.0 | 0.00 | 0.00 | 0.00 | 66 | 1007.7 |
| 20260507131028 | 80 | 339 | 9.0 | 17.0 | 0.00 | 0.00 | 0.00 | 68 | 1007.9 |
| 20260507130529 | 80 | 11 | 8.0 | 18.0 | 0.00 | 0.00 | 0.00 | 68 | 1008.0 |
| 20260507130055 | 80 | 332 | 9.0 | 18.0 | 0.00 | 0.00 | 0.00 | 68 | 1008.1 |
| 20260507125528 | 80 | 349 | 6.0 | 16.0 | 0.00 | 0.00 | 0.00 | 70 | 1008.1 |
| 20260507125028 | 80 | 337 | 7.0 | 20.0 | 0.00 | 0.00 | 0.00 | 69 | 1008.1 |
| 20260507124547 | 80 | 322 | 7.0 | 20.0 | 0.00 | 0.00 | 0.00 | 69 | 1008.3 |
| 20260507124028 | 80 | 314 | 7.0 | 15.0 | 0.00 | 0.00 | 0.00 | 69 | 1008.1 |
| 20260507123528 | 80 | 322 | 7.0 | 14.0 | 0.00 | 0.00 | 0.00 | 69 | 1008.2 |
| 20260507123035 | 79 | 353 | 5.0 | 14.0 | 0.00 | 0.00 | 0.00 | 71 | 1008.3 |
| 20260507122523 | 79 | 338 | 5.0 | 15.0 | 0.00 | 0.00 | 0.00 | 69 | 1008.2 |
| 20260507122024 | 79 | 320 | 7.0 | 15.0 | 0.00 | 0.00 | 0.00 | 69 | 1008.1 |
| 20260507121535 | 79 | 320 | 7.0 | 16.0 | 0.00 | 0.00 | 0.00 | 69 | 1008.2 |
| 20260507121027 | 79 | 306 | 6.0 | 16.0 | 0.00 | 0.00 | 0.00 | 69 | 1008.3 |
| 20260507120523 | 79 | 335 | 6.0 | 15.0 | 0.00 | 0.00 | 0.00 | 69 | 1008.3 |
| 20260507120041 | 79 | 348 | 5.0 | 15.0 | 0.00 | 0.00 | 0.00 | 69 | 1008.5 |
| 20260507115523 | 79 | 322 | 5.0 | 15.0 | 0.00 | 0.00 | 0.00 | 70 | 1008.4 |
| 20260507115023 | 78 | 321 | 5.0 | 15.0 | 0.00 | 0.00 | 0.00 | 70 | 1008.4 |
| 20260507114548 | 78 | 318 | 4.0 | 12.0 | 0.00 | 0.00 | 0.00 | 70 | 1008.5 |
| 20260507114026 | 78 | 333 | 5.0 | 12.0 | 0.00 | 0.00 | 0.00 | 71 | 1008.7 |
| 20260507113524 | 78 | 316 | 4.0 | 11.0 | 0.00 | 0.00 | 0.00 | 71 | 1008.6 |
| 20260507113039 | 78 | 342 | 4.0 | 11.0 | 0.00 | 0.00 | 0.00 | 72 | 1008.5 |
| 20260507112524 | 78 | 348 | 5.0 | 15.0 | 0.00 | 0.00 | 0.00 | 71 | 1008.3 |
| 20260507112024 | 78 | 347 | 5.0 | 15.0 | 0.00 | 0.00 | 0.00 | 71 | 1008.3 |
| 20260507111535 | 79 | 349 | 4.0 | 11.0 | 0.00 | 0.00 | 0.00 | 71 | 1008.4 |
| 20260507111023 | 79 | 338 | 4.0 | 10.0 | 0.00 | 0.00 | 0.00 | 71 | 1008.1 |
| 20260507110523 | 78 | 6 | 4.0 | 10.0 | 0.00 | 0.00 | 0.00 | 71 | 1008.1 |
| 20260507110044 | 78 | 22 | 4.0 | 9.0 | 0.00 | 0.00 | 0.00 | 72 | 1008.0 |
| 20260507105524 | 78 | 31 | 4.0 | 9.0 | 0.00 | 0.00 | 0.00 | 72 | 1007.9 |
| 20260507105023 | 78 | 6 | 4.0 | 11.0 | 0.00 | 0.00 | 0.00 | 72 | 1007.8 |
| 20260507104544 | 77 | 17 | 3.0 | 11.0 | 0.00 | 0.00 | 0.00 | 73 | 1007.9 |
| 20260507104027 | 77 | 3 | 3.0 | 12.0 | 0.00 | 0.00 | 0.00 | 74 | 1008.1 |
| 20260507103527 | 76 | 357 | 2.0 | 13.0 | 0.00 | 0.00 | 0.00 | 76 | 1008.1 |
| 20260507103043 | 75 | 12 | 4.0 | 13.0 | 0.00 | 0.00 | 0.00 | 76 | 1008.1 |
| 20260507102523 | 74 | 20 | 2.0 | 5.0 | 0.00 | 0.00 | 0.00 | 78 | 1008.1 |
| 20260507102027 | 74 | 16 | 1.0 | 3.0 | 0.00 | 0.00 | 0.00 | 78 | 1008.0 |
| 20260507101538 | 74 | 46 | 1.0 | 4.0 | 0.00 | 0.00 | 0.00 | 78 | 1008.0 |
| 20260507101023 | 74 | 46 | 1.0 | 4.0 | 0.00 | 0.00 | 0.00 | 78 | 1008.0 |
| 20260507100611 | 74 | 41 | 0.0 | 3.0 | 0.00 | 0.00 | 0.00 | 77 | 1008.0 |
| 20260507100040 | 75 | 41 | 0.0 | 3.0 | 0.00 | 0.00 | 0.00 | 76 | 1008.1 |
| 20260507095527 | 75 | 41 | 0.0 | 3.0 | 0.00 | 0.00 | 0.00 | 76 | 1008.1 |
| 20260507095024 | 75 | 0 | 1.0 | 4.0 | 0.00 | 0.00 | 0.00 | 76 | 1008.2 |
| 20260507094539 | 75 | 18 | 1.0 | 5.0 | 0.00 | 0.00 | 0.00 | 76 | 1008.2 |
| 20260507094024 | 75 | 25 | 2.0 | 5.0 | 0.00 | 0.00 | 0.00 | 76 | 1008.0 |
| 20260507093523 | 75 | 29 | 2.0 | 6.0 | 0.00 | 0.00 | 0.00 | 76 | 1008.0 |
| 20260507093035 | 75 | 26 | 2.0 | 6.0 | 0.00 | 0.00 | 0.00 | 75 | 1007.9 |
| 20260507092523 | 76 | 29 | 2.0 | 6.0 | 0.00 | 0.00 | 0.00 | 75 | 1007.9 |
| 20260507092024 | 76 | 35 | 3.0 | 6.0 | 0.00 | 0.00 | 0.00 | 75 | 1007.9 |
| 20260507091544 | 76 | 33 | 3.0 | 8.0 | 0.00 | 0.00 | 0.00 | 75 | 1008.0 |
| 20260507091024 | 76 | 32 | 3.0 | 8.0 | 0.00 | 0.00 | 0.00 | 75 | 1007.9 |
| 20260507090524 | 76 | 35 | 3.0 | 6.0 | 0.00 | 0.00 | 0.00 | 75 | 1007.8 |
| 20260507090040 | 76 | 33 | 3.0 | 8.0 | 0.00 | 0.00 | 0.00 | 75 | 1007.9 |
| 20260507085524 | 76 | 18 | 4.0 | 8.0 | 0.00 | 0.00 | 0.00 | 75 | 1007.8 |
| 20260507085024 | 76 | 52 | 4.0 | 8.0 | 0.00 | 0.00 | 0.00 | 75 | 1007.8 |
| 20260507084538 | 76 | 21 | 4.0 | 8.0 | 0.00 | 0.00 | 0.00 | 75 | 1007.8 |
| 20260507084023 | 76 | 39 | 4.0 | 10.0 | 0.00 | 0.00 | 0.00 | 74 | 1007.8 |
| 20260507083523 | 76 | 32 | 4.0 | 10.0 | 0.00 | 0.00 | 0.00 | 74 | 1007.8 |
| 20260507083036 | 76 | 23 | 5.0 | 9.0 | 0.00 | 0.00 | 0.00 | 74 | 1007.7 |
| 20260507082523 | 76 | 25 | 5.0 | 9.0 | 0.00 | 0.00 | 0.00 | 75 | 1007.9 |
| 20260507082023 | 76 | 31 | 5.0 | 9.0 | 0.00 | 0.00 | 0.00 | 75 | 1007.9 |
| 20260507081543 | 76 | 33 | 4.0 | 10.0 | 0.00 | 0.00 | 0.00 | 74 | 1007.8 |
| 20260507081023 | 76 | 20 | 4.0 | 10.0 | 0.00 | 0.00 | 0.00 | 74 | 1008.1 |
| 20260507080527 | 76 | 5 | 6.0 | 11.0 | 0.00 | 0.00 | 0.00 | 74 | 1008.3 |
| 20260507080040 | 76 | 360 | 4.0 | 11.0 | 0.00 | 0.00 | 0.00 | 74 | 1008.3 |
| 20260507075529 | 76 | 20 | 4.0 | 10.0 | 0.00 | 0.00 | 0.00 | 74 | 1008.3 |
| 20260507075023 | 75 | 353 | 4.0 | 10.0 | 0.00 | 0.00 | 0.00 | 75 | 1008.3 |
| 20260507074553 | 75 | 29 | 5.0 | 11.0 | 0.00 | 0.00 | 0.00 | 75 | 1008.6 |
| 20260507074209 | 75 | 358 | 4.0 | 11.0 | 0.00 | 0.00 | 0.00 | 75 | 1008.6 |
| 20260507073526 | 75 | 1 | 4.0 | 9.0 | 0.00 | 0.00 | 0.00 | 75 | 1008.6 |
| 20260507073037 | 75 | 353 | 4.0 | 9.0 | 0.00 | 0.00 | 0.00 | 75 | 1008.7 |
| 20260507072526 | 75 | 11 | 3.0 | 8.0 | 0.00 | 0.00 | 0.00 | 75 | 1008.7 |
| 20260507072023 | 75 | 25 | 4.0 | 9.0 | 0.00 | 0.00 | 0.00 | 75 | 1008.7 |
| 20260507071536 | 75 | 15 | 4.0 | 9.0 | 0.00 | 0.00 | 0.00 | 75 | 1008.8 |
| 20260507071023 | 75 | 18 | 4.0 | 9.0 | 0.00 | 0.00 | 0.00 | 76 | 1008.8 |
| 20260507070526 | 75 | 11 | 4.0 | 9.0 | 0.00 | 0.00 | 0.00 | 76 | 1008.9 |
| 20260507070035 | 75 | 352 | 4.0 | 9.0 | 0.00 | 0.00 | 0.00 | 76 | 1008.8 |
| 20260507065529 | 74 | 346 | 3.0 | 7.0 | 0.00 | 0.00 | 0.00 | 76 | 1008.8 |
| 20260507065024 | 75 | 359 | 2.0 | 7.0 | 0.00 | 0.00 | 0.00 | 76 | 1009.0 |